Regional Weather Roundup
Issued by NWS

Home | Current Version | Previous Version | Graphics & Text | Print | Product List | Glossary Off
Versions: 1 2 3 4 5 6 7 8 9 10 11 12 13 14 15 16 17 18 19 20 21 22 23 24 25 26 27 28 29 30 31 32 33 34 35 36 37 38 39 40 41 42 43 44 45 46 47 48 49 50

763
ASUS43 KMKX 230811
RWRWI

WISCONSIN REGIONAL WEATHER ROUNDUP
NATIONAL WEATHER SERVICE MILWAUKEE/SULLIVAN WI
200 AM CST THU NOV 23 2017

NOTE: "FAIR" INDICATES FEW OR NO CLOUDS BELOW 12,000 FEET WITH NO
SIGNIFICANT WEATHER AND/OR OBSTRUCTIONS TO VISIBILITY.

WIZ001-002-006>008-014>016-023>028-230900-
NORTHWEST WISCONSIN

CITY           SKY/WX    TMP DP  RH WIND       PRES   REMARKS
SUPERIOR ARPT  CLOUDY    23  21  91 CALM      29.96S
ASHLAND        CLOUDY    26  18  71 SW6       29.95F WCI  19
HAYWARD        CLOUDY    25  19  78 S3        29.93F
SIREN          CLOUDY    27  19  73 S5        29.93F WCI  21
CUMBERLAND     CLOUDY    25  19  80 CALM      29.93F
RICE LAKE      CLOUDY    27  21  78 E3        29.96S
CHETEK         CLOUDY    26  20  77 E3        29.95S
LADYSMITH      CLOUDY    26  21  80 CALM      29.97F
EAU CLAIRE     CLOUDY    25  16  68 NE5       29.96R WCI  19
MENOMONIE      CLOUDY    26  19  76 NE3       29.96R
NEW RICHMOND   CLOUDY    20  15  81 E3        29.94S
OSCEOLA        CLOUDY    23  17  78 SE5       29.96S WCI  17
$$

WIZ003>005-009-010-017-018-230900-
NORTH CENTRAL WISCONSIN

CITY           SKY/WX    TMP DP  RH WIND       PRES   REMARKS
MANITOWISH WTR CLOUDY    22  21  93 SW7       29.91F WCI  14
ARBOR VITAE    CLOUDY    24  21  88 S5        29.92F WCI  18
WOODRUFF       CLOUDY    24  21  88 S5        29.92F WCI  18
RHINELANDER    CLOUDY    24  21  88 SW5       29.95R WCI  18
EAGLE RIVER    CLOUDY    23  19  83 SW6       29.93S WCI  16
LAND O LAKES   CLOUDY    24  20  84 SW5       29.93F WCI  18
PHILLIPS       CLOUDY    23  20  89 S5        29.93F WCI  17
TOMAHAWK       CLOUDY    23  20  87 CALM      29.96R
MEDFORD        CLOUDY    24  19  78 CALM      29.94S
MERRILL        CLOUDY    25  20  82 CALM      29.97R
$$

WIZ029-030-035-036-043>047-230900-
CENTRAL WISCONSIN

CITY           SKY/WX    TMP DP  RH WIND       PRES   REMARKS
WAUSAU         CLOUDY    26  20  77 S3        29.96R
MOSINEE        CLOUDY    27  21  80 S3        29.97S
MARSHFIELD     CLOUDY    27  17  66 S7        29.94F WCI  19
STEVENS POINT  CLOUDY    26  18  72 S5        29.98S WCI  20
WAUPACA        CLOUDY    30  23  76 S3        30.00F
WAUTOMA        CLOUDY    29  19  66 S5        29.99F WCI  24
WISC RAPIDS    CLOUDY    29  18  63 S6        29.98F WCI  23
CAMP DOUGLAS   CLOUDY    32  16  51 S6        29.97F WCI  26
$$

WIZ011>013-019>022-031-037>040-048>050-230900-
NORTHEAST WISCONSIN

CITY           SKY/WX    TMP DP  RH WIND       PRES   REMARKS
ANTIGO         CLOUDY    24  20  82 SW6       29.96R WCI  17
SHAWANO        CLOUDY    30  23  75 CALM      29.99F
OCONTO         CLOUDY    28  21  73 SW7       30.01F WCI  21
STURGEON BAY   CLOUDY    28  23  81 SW12      30.02F WCI  18
GREEN BAY      CLOUDY    29  25  85 S7        30.01F WCI  22
MANITOWOC      CLOUDY    29  23  78 S8        30.04F WCI  21
APPLETON       CLOUDY    28  21  74 S8        29.98F WCI  20
CLINTONVILLE   CLOUDY    28  21  74 S7        30.00F WCI  21
OSHKOSH        CLOUDY    29  21  72 S10       30.00F WCI  20
$$

WIZ032>034-041-042-053>061-230900-
SOUTHWEST WISCONSIN

CITY           SKY/WX    TMP DP  RH WIND       PRES   REMARKS
LA CROSSE      CLEAR     33  18  53 S13       29.96F WCI  24
SPARTA         CLOUDY    31  17  56 S5        29.98S WCI  26
VIROQUA        PTCLDY    30  19  64 S6        29.95F WCI  24
BOSCOBEL       CLOUDY    34  17  50 S7        30.02F WCI  28
PRAIRIE DU CHI CLEAR     33  15  47 SE3       30.00F
PLATTEVILLE    CLOUDY    32  21  64 S13       30.02F WCI  22
$$

WIZ056-057-062-063-064-067-068-230900-
SOUTH CENTRAL WISCONSIN

CITY           SKY/WX    TMP DP  RH WIND       PRES   REMARKS
REEDSBURG      CLOUDY    32  17  53 S7        29.99F WCI  25
BARABOO/DELLS  CLOUDY    32  16  52 S10       29.98F WCI  23
LONE ROCK      CLOUDY    33  18  53 S6        30.02F WCI  28
MINERAL POINT  CLOUDY    32  21  64 S10       30.00F WCI  24
MADISON        CLOUDY    32  18  56 S9        30.02F WCI  24
MIDDLETON      CLOUDY    33  19  56 S9        30.02F WCI  25
WATERTOWN      CLOUDY    31  19  61 S9        30.05F WCI  23
MONROE         CLOUDY    32  19  59 S14       30.03F WCI  22
JANESVILLE     CLOUDY    32  21  64 S9        30.07F WCI  24
$$

WIZ051-052-058>065-066-070>072-230900-
SOUTHEAST WISCONSIN

CITY           SKY/WX    TMP DP  RH WIND       PRES   REMARKS
MILWAUKEE      CLOUDY    33  20  58 SW7       30.09F WCI  27
WAUKESHA       CLOUDY    30  18  59 S8        30.08F WCI  23
MILWAUKEE/TIMM CLOUDY    32  16  51 S7        30.08F WCI  26
RACINE         CLOUDY    32  19  58 SW8       30.12F WCI  25
BURLINGTON     CLOUDY    34  25  71 SW10      30.10F WCI  26
KENOSHA        CLOUDY    32  19  58 SW8       30.11F WCI  25
FOND DU LAC    CLOUDY    31  18  58 S10       30.02F WCI  22
SHEBOYGAN      CLOUDY    30  22  72 SW8       30.04F WCI  22
WEST BEND      CLOUDY    32  18  55 S7        30.04F WCI  26
JUNEAU         CLOUDY    30  19  63 S10       30.04F WCI  21
$$

LSZ147-162-230900-
LAKE SUPERIOR

STATION/POSITION TIME  TEMP    WIND        PRES    WAVE
                       AIR SEA DIR/SP/G            HT/PER
                 (UTC) (F)     (DEG/KT/KT) (MB)    (FT/S)
DEVILS ISLAND    0800   29     240/ 17/ 21 1014.7F
SAXON HARBOR     0740   28     180/  8/ 12 1013.5F
$$

LMZ867-665-643>646-230900-
LAKE MICHIGAN

STATION/POSITION TIME  TEMP    WIND        PRES    WAVE
                       AIR SEA DIR/SP/G            HT/PER
                 (UTC) (F)     (DEG/KT/KT) (MB)    (FT/S)
N MID LAKE BUOY  0750   34 47  240/ 19/ 23 1017.1F   4/ 5
NORTHPORT PIER   0758   31     260/  5/ 13 1015.9F
KEWAUNEE LAKESHO 0742   29     220/  9/ 12 1016.4F
SHEBOYGAN LAKESH 0800   31     200/ 11/ 12 1018.1F
PORT WASHINGTON  0740   33     230/  6/  9 1019.6F
MILWAUKEE LAKESH 0750   33     220/ 12/ 13   N/A
S MID LAKE BUOY  0650   36 47  280/ 16/ 19 1021.1F   3/ 4
KENOSHA   LAKESH 0800   33     220/  6/  8 1019.6
$$

TC  - TEMPERATURE IN CELSIUS
VSB - VISIBILITY IN STATUTE MILES
WCI - WIND CHILL INDEX
HX  - HEAT INDEX





USA.gov is the U.S. government's official web portal to all federal, state and local government web resources and services.